Find Starlink 38251

NORAD ID: 100229 Int'l Des: 2026-177 Owner: SPXS Country: US Constellation: starlink operational

Current View

Loading 3D Globe...

About Starlink 38251

Starlink 38251 (NORAD 100229) is a starlink constellation satellite launched Aug 4, 2026 by SPXS of US. with a mass of 575.00 kg.

Upcoming Passes

Passes for default location (London). Set your location on the main map for personalized predictions.

Altitude History

Loading altitude history...

Two-Line Element Set

1 A0229U 26177S 26235.62085939 .00121787 00000-0 80532-3 0 9993
2 A0229 97.2846 285.5329 0001215 83.0603 277.0801 15.75203577 4072
Epoch: Aug 23, 2026 • Age: 12 hours

Current Status

Altitude 345.9 km
Apogee / Perigee N/A
Velocity 7.70 km/s
Sub-Earth Point 17.28°N, 96.17°W
Launch Date Aug 4, 2026
Age 19 days
Type internet

Technical Details

Classification Payload
Mass 575.00 kg
Dry Mass 530.00 kg
Total Mass 575.00 kg
Length 0.30 m
Diameter 4.10 m
Span 29.00 m
Shape Box + pan
Manufacturer SPXS
Bus Type Starlink V2MO
Phase Status In Orbit
Owner/State SPXS/US

Most Searched